Погода в Аллаках

Россия / Челябинская область     56°00′06″N   60°58′33″E
темп.,
°C
ветер,
м/с
пор.,
м/с
влажн.,
%
обл.,
%
осадки,
мм/ч
давл.,
гПа
погр.,
м
11 апреля, вс
вс1123:00+5ю71295100 0.0 1035324
02:00+5ю61395100 0.0 1034341
05:00+2ю61494100 0.0 1034324
08:00+3ю61488100 0.0 1034297
11:00+7ю6107872 0.0 1034332
14:00+12ю67695 0.0 1032413
17:00+12ю587640 0.0 1032347
20:00+8ююз4791100 0.0 1033107
12 апреля, пн
пн1223:00+7юз338994 0.0 103330
02:00+7юз228597 0.0 103322
05:00+7зюз2291100 0.3 103426
08:00+7з2394100 0.8 103575
11:00+7ссз3698100 4.4 1036215
14:00+7сз2392100 1.2 1037109
17:00+10ссв1368100 1.2 1037624
20:00+7ссв2279100 0.0 103916
13 апреля, вт
вт1323:00+5св22855 0.0 104017
02:00+3всв22824 0.0 104010
05:00+2вюв11820 0.0 104110
08:00+4ююв12780 0.0 1041107
11:00+9ююв34695 0.0 1040523
14:00+12ю44641 0.0 1038813
17:00+14ююз45646 0.0 1037920
20:00+10ю35813 0.0 103673
14 апреля, ср
ср1423:00+8ююз37877 0.0 1035124
02:00+7ююз35888 0.0 103467
05:00+7зюз228763 0.0 103320
08:00+9зюз268752 0.0 1032178
11:00+14з356359 0.0 1031706
14:00+17з445453 0.0 10291170
17:00+18з345225 0.0 10271326
20:00+14з337061 0.0 102721
15 апреля, чт
чт1523:00+11з22775 0.0 102617
02:00+9з228244 0.0 102514
05:00+8зсз22845 0.0 102519
08:00+10з24765 0.0 1025134
11:00+15з344815 0.0 1023757
14:00+18з35346 0.0 10211336
17:00+18з35345 0.0 10191421
20:00+14зсз22509 0.0 101812